EAG5502 SBUL-SBIL

Flight info

Callsign EAG5502
Flight time 1h 28m
Altitude 45000
Route ISRIK DCT REINA DCT MILOL DCT DOSVU DCT DALOX
Aircraft C700/M-SBDGHM1RWXY/LB2

Departure

Time 2026-04-26 01:05
Airport Ten. Cel. Aviador César Bombonato Airport (SBUL)

Arrival

Time 2026-04-26 02:33
Airport Bahia - Jorge Amado Airport (SBIL)
Time Latitude Longitude Altitude Speed Heading
2026-04-26 00:56 -18.89122 -48.23108 3102 ft 0 kts 113°
2026-04-26 01:03 -18.89127 -48.23096 3102 ft 10 kts 113°
2026-04-26 01:04 -18.89089 -48.23033 3101 ft 13 kts 22°
2026-04-26 01:04 -18.89036 -48.23010 3101 ft 8 kts 23°
2026-04-26 01:04 -18.89034 -48.22972 3101 ft 6 kts 118°
2026-04-26 01:04 -18.89056 -48.22918 3101 ft 9 kts 88°
2026-04-26 01:05 -18.88997 -48.22871 3101 ft 25 kts 23°
2026-04-26 01:05 -18.88522 -48.22663 3103 ft 123 kts 23°
2026-04-26 01:05 -18.87155 -48.22031 4080 ft 169 kts 26°
2026-04-26 01:05 -18.86085 -48.21480 5424 ft 176 kts 27°
2026-04-26 01:06 -18.84934 -48.21003 6700 ft 178 kts 20°
2026-04-26 01:06 -18.84148 -48.20696 7552 ft 180 kts 22°
2026-04-26 01:06 -18.82986 -48.20188 8845 ft 181 kts 23°
2026-04-26 01:06 -18.81840 -48.19493 9805 ft 207 kts 42°
2026-04-26 01:07 -18.80928 -48.18221 10704 ft 231 kts 65°
2026-04-26 01:07 -18.80476 -48.16515 11610 ft 255 kts 85°
2026-04-26 01:07 -18.80590 -48.14569 12470 ft 280 kts 103°
2026-04-26 01:07 -18.81313 -48.12566 13287 ft 307 kts 119°
2026-04-26 01:08 -18.82646 -48.10691 14088 ft 333 kts 134°
2026-04-26 01:08 -18.84290 -48.08914 15219 ft 341 kts 134°
2026-04-26 01:08 -18.85888 -48.07020 16396 ft 351 kts 129°
2026-04-26 01:08 -18.87354 -48.04924 17548 ft 359 kts 123°
2026-04-26 01:09 -18.88573 -48.02589 18630 ft 368 kts 113°
2026-04-26 01:09 -18.89396 -48.00002 19623 ft 374 kts 105°
2026-04-26 01:09 -18.90040 -47.97316 20643 ft 381 kts 104°
2026-04-26 01:09 -18.90759 -47.94603 21631 ft 387 kts 108°
2026-04-26 01:10 -18.91661 -47.91901 22609 ft 393 kts 111°
2026-04-26 01:10 -18.92591 -47.89160 23563 ft 400 kts 110°
2026-04-26 01:10 -18.93451 -47.86343 24368 ft 406 kts 108°
2026-04-26 01:10 -18.94299 -47.83481 25188 ft 411 kts 108°
2026-04-26 01:11 -18.95198 -47.80602 26000 ft 416 kts 109°
2026-04-26 01:11 -18.96127 -47.77689 26820 ft 421 kts 109°
2026-04-26 01:11 -18.97036 -47.74773 27608 ft 426 kts 108°
2026-04-26 01:11 -18.97954 -47.71777 28393 ft 431 kts 108°
2026-04-26 01:12 -18.98892 -47.68747 29169 ft 437 kts 108°
2026-04-26 01:12 -18.99850 -47.65681 29930 ft 442 kts 108°
2026-04-26 01:12 -19.00814 -47.62578 30615 ft 447 kts 108°
2026-04-26 01:12 -19.01783 -47.59442 31287 ft 451 kts 108°
2026-04-26 01:13 -19.02763 -47.56272 31865 ft 458 kts 108°
2026-04-26 01:13 -19.03758 -47.53061 32474 ft 462 kts 108°
2026-04-26 01:13 -19.04762 -47.49818 33049 ft 466 kts 108°
2026-04-26 01:13 -19.05770 -47.46555 33766 ft 466 kts 108°
2026-04-26 01:14 -19.06773 -47.43304 34518 ft 464 kts 108°
2026-04-26 01:14 -19.07771 -47.40068 35242 ft 462 kts 108°
2026-04-26 01:14 -19.08766 -47.36844 36013 ft 459 kts 108°
2026-04-26 01:14 -19.09751 -47.33648 36763 ft 456 kts 108°
2026-04-26 01:15 -19.10732 -47.30463 37453 ft 454 kts 108°
2026-04-26 01:15 -19.11707 -47.27294 38095 ft 452 kts 108°
2026-04-26 01:15 -19.12678 -47.24137 38681 ft 451 kts 108°
2026-04-26 01:15 -19.13612 -47.20975 39136 ft 450 kts 105°
2026-04-26 01:16 -19.14112 -47.17718 39542 ft 449 kts 94°
2026-04-26 01:16 -19.14086 -47.14430 39949 ft 447 kts 84°
2026-04-26 01:16 -19.13543 -47.11203 40316 ft 445 kts 74°
2026-04-26 01:16 -19.12500 -47.08125 40653 ft 443 kts 64°
2026-04-26 01:17 -19.11177 -47.05189 40984 ft 442 kts 63°
2026-04-26 01:17 -19.09871 -47.02293 41294 ft 441 kts 63°
2026-04-26 01:17 -19.08558 -46.99365 41591 ft 441 kts 63°
2026-04-26 01:17 -19.07248 -46.96446 41873 ft 440 kts 63°
2026-04-26 01:18 -19.05935 -46.93532 42153 ft 439 kts 63°
2026-04-26 01:18 -19.04620 -46.90618 42402 ft 438 kts 63°
2026-04-26 01:18 -19.03312 -46.87713 42643 ft 437 kts 63°
2026-04-26 01:18 -19.02008 -46.84818 42873 ft 437 kts 63°
2026-04-26 01:19 -19.00702 -46.81922 43091 ft 436 kts 63°
2026-04-26 01:19 -18.99398 -46.79033 43309 ft 436 kts 63°
2026-04-26 01:19 -18.98093 -46.76143 43512 ft 435 kts 63°
2026-04-26 01:19 -18.96791 -46.73260 43701 ft 434 kts 63°
2026-04-26 01:20 -18.95491 -46.70384 43886 ft 434 kts 63°
2026-04-26 01:20 -18.94192 -46.67510 44044 ft 434 kts 63°
2026-04-26 01:20 -18.92892 -46.64637 44221 ft 433 kts 63°
2026-04-26 01:20 -18.91593 -46.61768 44373 ft 433 kts 63°
2026-04-26 01:21 -18.90299 -46.58908 44530 ft 432 kts 63°
2026-04-26 01:21 -18.89001 -46.56045 44672 ft 432 kts 63°
2026-04-26 01:21 -18.87705 -46.53185 44789 ft 432 kts 63°
2026-04-26 01:21 -18.86409 -46.50326 44880 ft 432 kts 63°
2026-04-26 01:22 -18.83814 -46.44609 45051 ft 432 kts 63°
2026-04-26 01:22 -18.81200 -46.38856 45049 ft 437 kts 63°
2026-04-26 01:23 -18.78559 -46.33046 45056 ft 441 kts 63°
2026-04-26 01:23 -18.75889 -46.27181 45057 ft 445 kts 63°
2026-04-26 01:24 -18.73193 -46.21264 45057 ft 449 kts 63°
2026-04-26 01:24 -18.70473 -46.15299 45055 ft 453 kts 63°
2026-04-26 01:25 -18.67729 -46.09290 45058 ft 456 kts 63°
2026-04-26 01:25 -18.64967 -46.03247 45053 ft 459 kts 63°
2026-04-26 01:26 -18.62198 -45.97193 45049 ft 462 kts 63°
2026-04-26 01:26 -18.59379 -45.91038 45049 ft 465 kts 63°
2026-04-26 01:27 -18.56559 -45.84887 45046 ft 467 kts 63°
2026-04-26 01:27 -18.53744 -45.78753 45046 ft 468 kts 63°
2026-04-26 01:28 -18.50920 -45.72606 45042 ft 464 kts 63°
2026-04-26 01:28 -18.48112 -45.66500 45034 ft 462 kts 63°
2026-04-26 01:29 -18.45308 -45.60407 45032 ft 463 kts 63°
2026-04-26 01:29 -18.42740 -45.54165 45035 ft 466 kts 69°
2026-04-26 01:30 -18.40498 -45.47741 45033 ft 468 kts 69°
2026-04-26 01:30 -18.38223 -45.41342 45032 ft 465 kts 69°
2026-04-26 01:31 -18.35984 -45.34980 45027 ft 462 kts 69°
2026-04-26 01:31 -18.33735 -45.28642 45025 ft 463 kts 69°
2026-04-26 01:32 -18.31486 -45.22288 45026 ft 464 kts 69°
2026-04-26 01:32 -18.29227 -45.15924 45028 ft 464 kts 69°
2026-04-26 01:33 -18.26965 -45.09551 45030 ft 465 kts 68°
2026-04-26 01:33 -18.24695 -45.03172 45037 ft 466 kts 68°
2026-04-26 01:34 -18.22425 -44.96794 45038 ft 466 kts 68°
2026-04-26 01:34 -18.20147 -44.90405 45040 ft 467 kts 68°
2026-04-26 01:35 -18.17865 -44.84010 45042 ft 467 kts 68°
2026-04-26 01:35 -18.15579 -44.77611 45045 ft 468 kts 68°
2026-04-26 01:36 -18.13288 -44.71208 45046 ft 468 kts 68°
2026-04-26 01:37 -18.09861 -44.61641 45038 ft 464 kts 68°
2026-04-26 01:37 -18.07594 -44.55324 45038 ft 461 kts 68°
2026-04-26 01:38 -18.05712 -44.50085 45036 ft 461 kts 68°
2026-04-26 01:38 -18.04577 -44.46927 45037 ft 462 kts 68°
2026-04-26 01:39 -18.00786 -44.36391 45047 ft 465 kts 68°
2026-04-26 01:39 -17.98880 -44.31104 45047 ft 467 kts 68°
2026-04-26 01:40 -17.93863 -44.17209 45049 ft 460 kts 68°
2026-04-26 01:41 -17.91573 -44.10878 45054 ft 462 kts 68°
2026-04-26 01:41 -17.88612 -44.04934 45064 ft 460 kts 52°
2026-04-26 01:42 -17.84506 -43.99774 45070 ft 461 kts 49°
2026-04-26 01:42 -17.80378 -43.94604 45078 ft 463 kts 49°
2026-04-26 01:43 -17.76262 -43.89472 45077 ft 462 kts 49°
2026-04-26 01:43 -17.72136 -43.84324 45075 ft 461 kts 49°
2026-04-26 01:44 -17.68014 -43.79187 45071 ft 460 kts 49°
2026-04-26 01:44 -17.63896 -43.74059 45073 ft 459 kts 49°
2026-04-26 01:45 -17.59786 -43.68944 45067 ft 458 kts 49°
2026-04-26 01:45 -17.55691 -43.63853 45063 ft 456 kts 49°
2026-04-26 01:46 -17.51598 -43.58768 45059 ft 458 kts 49°
2026-04-26 01:46 -17.47484 -43.53660 45059 ft 460 kts 49°
2026-04-26 01:47 -17.44056 -43.49408 45056 ft 461 kts 49°
2026-04-26 01:47 -17.39922 -43.44282 45057 ft 460 kts 49°
2026-04-26 01:48 -17.35793 -43.39168 45064 ft 459 kts 49°
2026-04-26 01:48 -17.31666 -43.34059 45063 ft 459 kts 49°
2026-04-26 01:49 -17.27545 -43.28962 45063 ft 458 kts 49°
2026-04-26 01:49 -17.23432 -43.23879 45057 ft 457 kts 49°
2026-04-26 01:50 -17.19356 -43.18844 45053 ft 455 kts 49°
2026-04-26 01:50 -17.15265 -43.13796 45052 ft 455 kts 49°
2026-04-26 01:51 -17.11162 -43.08736 45053 ft 457 kts 49°
2026-04-26 01:51 -17.07046 -43.03665 45056 ft 458 kts 49°
2026-04-26 01:52 -17.02923 -42.98588 45055 ft 457 kts 49°
2026-04-26 01:52 -16.98818 -42.93537 45049 ft 455 kts 49°
2026-04-26 01:53 -16.94731 -42.88511 45045 ft 453 kts 49°
2026-04-26 01:53 -16.90648 -42.83496 45038 ft 453 kts 49°
2026-04-26 01:54 -16.86554 -42.78469 45043 ft 455 kts 49°
2026-04-26 01:54 -16.82474 -42.73464 45043 ft 456 kts 49°
2026-04-26 01:55 -16.78355 -42.68415 45045 ft 457 kts 49°
2026-04-26 01:55 -16.74240 -42.63374 45044 ft 456 kts 49°
2026-04-26 01:56 -16.70129 -42.58342 45042 ft 455 kts 49°
2026-04-26 01:56 -16.66026 -42.53323 45042 ft 454 kts 49°
2026-04-26 01:57 -16.61926 -42.48311 45044 ft 454 kts 49°
2026-04-26 01:57 -16.57874 -42.43270 45035 ft 454 kts 53°
2026-04-26 01:58 -16.54947 -42.37452 45044 ft 455 kts 65°
2026-04-26 01:58 -16.52362 -42.31420 45045 ft 457 kts 65°
2026-04-26 01:59 -16.49758 -42.25368 45051 ft 458 kts 65°
2026-04-26 01:59 -16.47151 -42.19301 45053 ft 458 kts 65°
2026-04-26 02:00 -16.44547 -42.13256 45047 ft 457 kts 65°
2026-04-26 02:00 -16.41966 -42.07262 45054 ft 456 kts 65°
2026-04-26 02:01 -16.39371 -42.01248 45055 ft 454 kts 65°
2026-04-26 02:01 -16.36785 -41.95255 45054 ft 454 kts 65°
2026-04-26 02:02 -16.34191 -41.89254 45064 ft 455 kts 65°
2026-04-26 02:02 -16.31586 -41.83230 45069 ft 456 kts 65°
2026-04-26 02:03 -16.28984 -41.77218 45073 ft 455 kts 65°
2026-04-26 02:03 -16.26389 -41.71231 45070 ft 453 kts 65°
2026-04-26 02:04 -16.23805 -41.65271 45065 ft 452 kts 65°
2026-04-26 02:04 -16.21213 -41.59301 45075 ft 453 kts 65°
2026-04-26 02:05 -16.18612 -41.53312 45077 ft 455 kts 64°
2026-04-26 02:05 -16.16014 -41.47338 45079 ft 457 kts 64°
2026-04-26 02:06 -16.13402 -41.41336 45084 ft 453 kts 64°
2026-04-26 02:06 -16.10817 -41.35404 45078 ft 449 kts 64°
2026-04-26 02:07 -16.08235 -41.29483 45080 ft 451 kts 64°
2026-04-26 02:07 -16.05640 -41.23536 45082 ft 452 kts 64°
2026-04-26 02:08 -16.03033 -41.17567 45082 ft 454 kts 64°
2026-04-26 02:08 -16.00416 -41.11582 45089 ft 456 kts 64°
2026-04-26 02:09 -15.97796 -41.05594 45088 ft 454 kts 64°
2026-04-26 02:09 -15.95213 -40.99697 45085 ft 450 kts 64°
2026-04-26 02:10 -15.92624 -40.93789 45084 ft 449 kts 64°
2026-04-26 02:10 -15.90029 -40.87877 45082 ft 451 kts 64°
2026-04-26 02:11 -15.87422 -40.81939 45085 ft 452 kts 64°
2026-04-26 02:11 -15.84805 -40.75984 45087 ft 454 kts 64°
2026-04-26 02:12 -15.82178 -40.70015 45083 ft 453 kts 64°
2026-04-26 02:12 -15.79565 -40.64078 45077 ft 451 kts 64°
2026-04-26 02:13 -15.76968 -40.58186 45075 ft 448 kts 64°
2026-04-26 02:13 -15.74373 -40.52303 45068 ft 449 kts 64°
2026-04-26 02:14 -15.71767 -40.46398 45067 ft 451 kts 64°
2026-04-26 02:14 -15.69144 -40.40462 45068 ft 453 kts 64°
2026-04-26 02:15 -15.66513 -40.34512 45065 ft 454 kts 64°
2026-04-26 02:15 -15.63878 -40.28558 45066 ft 454 kts 64°
2026-04-26 02:16 -15.61253 -40.22633 45067 ft 450 kts 64°
2026-04-26 02:16 -15.58641 -40.16758 45060 ft 447 kts 63°
2026-04-26 02:17 -15.55691 -40.11087 45059 ft 448 kts 60°
2026-04-26 02:17 -15.52726 -40.05395 45059 ft 449 kts 60°
2026-04-26 02:18 -15.49742 -39.99684 45067 ft 451 kts 60°
2026-04-26 02:18 -15.46747 -39.93956 45067 ft 453 kts 60°
2026-04-26 02:19 -15.43746 -39.88216 45068 ft 452 kts 60°
2026-04-26 02:19 -15.40758 -39.82511 45065 ft 449 kts 60°
2026-04-26 02:20 -15.37813 -39.76888 44919 ft 431 kts 60°
2026-04-26 02:20 -15.36416 -39.74221 44861 ft 413 kts 60°
2026-04-26 02:20 -15.35056 -39.71631 44164 ft 410 kts 60°
2026-04-26 02:20 -15.33689 -39.69030 43229 ft 412 kts 60°
2026-04-26 02:21 -15.32313 -39.66408 42284 ft 415 kts 60°
2026-04-26 02:21 -15.30930 -39.63771 41323 ft 418 kts 60°
2026-04-26 02:21 -15.29534 -39.61113 40374 ft 422 kts 61°
2026-04-26 02:21 -15.28127 -39.58435 39442 ft 425 kts 61°
2026-04-26 02:22 -15.26709 -39.55738 38419 ft 429 kts 61°
2026-04-26 02:22 -15.25274 -39.53009 37240 ft 434 kts 61°
2026-04-26 02:22 -15.23827 -39.50256 36134 ft 437 kts 61°
2026-04-26 02:22 -15.22373 -39.47492 35072 ft 438 kts 61°
2026-04-26 02:23 -15.20910 -39.44713 33891 ft 441 kts 62°
2026-04-26 02:23 -15.19436 -39.41914 32569 ft 444 kts 62°
2026-04-26 02:23 -15.17954 -39.39101 31261 ft 446 kts 62°
2026-04-26 02:23 -15.16465 -39.36274 29894 ft 447 kts 62°
2026-04-26 02:24 -15.14973 -39.33444 28252 ft 450 kts 62°
2026-04-26 02:24 -15.13469 -39.30592 26525 ft 453 kts 62°
2026-04-26 02:24 -15.11956 -39.27723 24781 ft 455 kts 62°
2026-04-26 02:24 -15.10433 -39.24837 22854 ft 458 kts 62°
2026-04-26 02:25 -15.08901 -39.21936 20627 ft 460 kts 62°
2026-04-26 02:25 -15.07492 -39.19277 18335 ft 367 kts 62°
2026-04-26 02:25 -15.06221 -39.16866 16890 ft 381 kts 62°
2026-04-26 02:25 -15.05062 -39.14669 16097 ft 332 kts 62°
2026-04-26 02:26 -15.03945 -39.12556 15622 ft 325 kts 62°
2026-04-26 02:26 -15.02876 -39.10537 15066 ft 319 kts 62°
2026-04-26 02:26 -15.01813 -39.08527 14404 ft 318 kts 62°
2026-04-26 02:26 -15.00759 -39.06530 13798 ft 315 kts 62°
2026-04-26 02:27 -14.99698 -39.04526 13133 ft 312 kts 62°
2026-04-26 02:27 -14.98659 -39.02567 12495 ft 309 kts 62°
2026-04-26 02:27 -14.97627 -39.00618 11865 ft 307 kts 63°
2026-04-26 02:27 -14.96609 -38.98694 11274 ft 303 kts 62°
2026-04-26 02:28 -14.95613 -38.96812 10682 ft 301 kts 62°
2026-04-26 02:28 -14.94610 -38.94921 10110 ft 298 kts 62°
2026-04-26 02:28 -14.93618 -38.93049 9514 ft 295 kts 63°
2026-04-26 02:28 -14.92635 -38.91197 8940 ft 291 kts 63°
2026-04-26 02:29 -14.91670 -38.89374 8391 ft 287 kts 62°
2026-04-26 02:29 -14.90690 -38.87589 7828 ft 284 kts 58°
2026-04-26 02:29 -14.89269 -38.86184 7281 ft 284 kts 34°
2026-04-26 02:29 -14.87450 -38.85423 6747 ft 284 kts 13°
2026-04-26 02:30 -14.85484 -38.85417 6189 ft 285 kts 351°
2026-04-26 02:30 -14.83647 -38.86170 5636 ft 285 kts 328°
2026-04-26 02:30 -14.82220 -38.87566 5077 ft 284 kts 306°
2026-04-26 02:30 -14.81420 -38.89258 3990 ft 260 kts 282°
2026-04-26 02:31 -14.81253 -38.91077 3987 ft 256 kts 269°
2026-04-26 02:31 -14.81298 -38.92776 4035 ft 225 kts 266°
2026-04-26 02:31 -14.81349 -38.94273 3866 ft 196 kts 266°
2026-04-26 02:31 -14.81383 -38.95684 3070 ft 193 kts 267°
2026-04-26 02:32 -14.81397 -38.97029 2294 ft 175 kts 268°
2026-04-26 02:32 -14.81419 -38.98221 1483 ft 168 kts 264°
2026-04-26 02:32 -14.81786 -38.99267 1076 ft 154 kts 234°
2026-04-26 02:32 -14.82236 -39.00218 684 ft 144 kts 264°
2026-04-26 02:33 -14.81942 -39.01167 336 ft 139 kts 301°
2026-04-26 02:33 -14.81586 -39.02025 149 ft 124 kts 276°
2026-04-26 02:33 -14.81584 -39.02948 21 ft 120 kts 269°
2026-04-26 02:33 -14.81597 -39.03438 15 ft 9 kts 250°
2026-04-26 02:34 -14.81603 -39.03466 15 ft 2 kts 319°
2026-04-26 02:34 -14.81594 -39.03428 17 ft 14 kts 83°
2026-04-26 02:34 -14.81586 -39.03329 13 ft 15 kts 88°
2026-04-26 02:34 -14.81587 -39.03202 12 ft 20 kts 91°
2026-04-26 02:35 -14.81564 -39.03088 12 ft 12 kts 13°
2026-04-26 02:35 -14.81482 -39.03084 13 ft 7 kts
2026-04-26 02:35 -14.81473 -39.03077 13 ft 1 kts 68°
2026-04-26 02:35 -14.81485 -39.03064 13 ft 5 kts 146°
2026-04-26 02:36 -14.81492 -39.03050 13 ft 0 kts 87°
2026-04-26 02:36 -14.81487 -39.03047 13 ft 1 kts
2026-04-26 02:36 -14.81486 -39.03047 13 ft 0 kts 358°